星链-35211(STARLINK-35211)

导读

STARLINK-35211是美国太空探索技术公司(SpaceX)于2025年9月25日发射的星链(Starlink)卫星,属于星链全球卫星互联网项目。该卫星运行在近地轨道,轨道倾角约43度,近地点约355公里,远地点约357公里,为全球尤其是偏远地区提供高速低延迟互联网接入服务,助力缩小数字鸿沟,同时可支持军事、航空等领域通信需求。

基本信息
目录编号:
65757
目录名称:
STARLINK-35211
国际标识:
2025-216Z
轨道中心:
EARTH
卫星名称:
星链-35211
卫星全名:
星链-35211(STARLINK-35211)
卫星状态:
在轨 (已飞行344 天)
发射日期:
2025-09-25 UTC
国别 :
美国 (US)
星等 :
--
轨道信息
数据来源 国际轨道数据 AOE轨道数据
星历时间 2026-09-03T16:27:13+0800
23小时前
查看轨道信息
2026-08-29T07:00:00+0800
6天前
查看轨道信息
半长轴 6840.794km 6840.827km
偏心率 0.0000858 0.0001062
轨道倾角 53.158° 53.158°
近地点辐角 75.130° 81.645°
升交点赤经 225.605° 250.821°
平近点角 284.979° 347.008°
近地点 462.07km 461.963km
远地点 463.244km 463.417km
周期 93.847分钟 93.847分钟
每日圈数 15.344157 15.344046
详细信息
固有亮度:
5
最大亮度:
2.5
卫星平台:
Starlink V1.0
覆盖范围:
全球
运营商:
太空探索技术公司
运营商所在国:
美国
制造商(研发单位):
太空探索技术公司
制造商所在国:
美国
使用方式:
暂无
卫星简介
Starlink 计划是 SpaceX 推出的全球卫星互联网项目,通过发射低轨道卫星,为全球尤其是偏远地区提供高速、低延迟的互联网服务。自 2019 年起,Starlink 已部署数千颗卫星,旨在缩小全球数字鸿沟,推动互联网普及。该项目还为军事、航空等行业提供通信支持,带来广泛经济效益。
2D轨道图
3D轨道图
轨道高度分析图
轨道倾角分析图
轨道综合分析图
查看轨道综合分析图